WP4MXZ San Sebastian PR US current weather conditions

sailwx.info

Wind from 287

Air temperature 25.6° C
Dewpoint 25.6° C

Last reported at 2015-Jan-27 17:33 UTC.
Time now 2015-Jan-27 19:02 UTC

Location: N 18°20' W 067°00'.
View on Google Maps.

See reports from other nearby stations

  
Tides and Currents Weather Stations Pressure Air Temp Water Temp Dewpoint Dewpoint Depression Visibility Wind Speed Wind Dir Waves Ship Positions
date/time (UTC)wind fromknots sea level pressurealtimeterstation pressurevisibilityair tempwater tempwave heightnotes
2015-Jan-27 17:33 287 25.6
2015-Jan-27 17:03 196 1 gusting 6 25.6
2015-Jan-27 16:33 037 28.3
2015-Jan-27 16:03 28.3
2015-Jan-27 15:33 276 28.9
2015-Jan-27 15:03 240 28.9
2015-Jan-27 14:33 072 28.3
2015-Jan-27 14:03 058 27.2
2015-Jan-27 13:33 258 26.1
2015-Jan-27 13:03 359 25.0
2015-Jan-27 12:33 359 22.8
2015-Jan-27 12:03 359 20.6
2015-Jan-27 11:33 358 19.4
2015-Jan-27 11:03 359 18.9
2015-Jan-27 10:33 358 19.4
2015-Jan-27 10:03 359 19.4
2015-Jan-27 09:33 359 19.4
2015-Jan-27 09:03 359 20.0
2015-Jan-27 08:33 358 20.0
2015-Jan-27 08:03 359 20.0
2015-Jan-27 07:33 359 20.6
2015-Jan-27 07:03 359 21.1
2015-Jan-27 05:33 020 22.2
2015-Jan-27 05:03 023 22.2
2015-Jan-27 04:33 073 21.7
2015-Jan-27 04:03 295 22.2
2015-Jan-27 03:33 295 21.7
2015-Jan-27 03:03 295 21.7
2015-Jan-27 02:33 295 21.7
2015-Jan-27 02:03 295 21.1
2015-Jan-27 01:33 295 21.1
2015-Jan-27 01:03 295 21.7
2015-Jan-27 00:33 295 22.2
2015-Jan-27 00:03 295 22.8
2015-Jan-26 23:33 295 23.9
2015-Jan-26 23:03 295 25.0
2015-Jan-26 22:33 295 26.1
2015-Jan-26 22:03 306 27.2
2015-Jan-26 21:33 272 0 gusting 6 28.9
2015-Jan-26 21:03 308 30.0
2015-Jan-26 20:33 342 30.0
2015-Jan-26 20:03 033 0 gusting 4 31.7
2015-Jan-26 19:33 343 31.7
2015-Jan-26 19:03 269 3 gusting 6 31.1
2015-Jan-26 18:33 219 31.1
2015-Jan-26 18:03 228 4 gusting 6 31.1
2015-Jan-26 17:33 232 3 gusting 6 30.6
2015-Jan-26 17:03 263 0 gusting 8 30.6
2015-Jan-26 16:33 186 1 gusting 4 30.0
2015-Jan-26 16:03 158 29.4
2015-Jan-26 15:33 131 28.9
2015-Jan-26 15:03 131 0 gusting 3 28.3
2015-Jan-26 14:33 305 27.2
2015-Jan-26 14:03 052 26.1
2015-Jan-26 13:33 222 24.4
2015-Jan-26 13:03 222 22.8
2015-Jan-26 12:33 222 20.0
2015-Jan-26 12:03 222 18.9
2015-Jan-26 11:33 222 17.8
2015-Jan-26 11:03 222 17.2
2015-Jan-26 10:33 222 17.2
2015-Jan-26 10:03 222 17.2
2015-Jan-26 09:33 222 17.8
2015-Jan-26 09:03 222 17.8
2015-Jan-26 08:33 222 17.8
2015-Jan-26 08:03 222 17.8
2015-Jan-26 07:33 222 18.3
2015-Jan-26 07:03 222 18.3
2015-Jan-26 05:33 222 18.9
2015-Jan-26 05:03 222 19.4
2015-Jan-26 04:33 222 19.4
2015-Jan-26 04:03 222 20.0
2015-Jan-26 03:33 222 20.6
2015-Jan-26 03:03 224 20.6
2015-Jan-26 02:33 224 21.1
2015-Jan-26 02:03 224 21.7
2015-Jan-26 01:33 224 21.7
2015-Jan-26 01:03 224 22.2
2015-Jan-26 00:33 225 22.8
2015-Jan-26 00:03 224 23.3
2015-Jan-25 23:33 224 23.9
2015-Jan-25 23:03 225 24.4
2015-Jan-25 22:33 224 25.0
2015-Jan-25 22:03 288 25.6
2015-Jan-25 21:33 303 0 gusting 4 25.6
2015-Jan-25 21:03 194 0 gusting 5 27.2
2015-Jan-25 20:33 148 2 gusting 8 27.2
2015-Jan-25 20:03 042 0 gusting 6 27.2
2015-Jan-25 19:33 078 1 gusting 4 27.8
2015-Jan-25 19:03 085 0 gusting 4 28.3